This is the latest recevied weather packets stored in our database for station/object S56VIL-11. If no packets are shown the sender has not sent any weather packets the latest 10 day(s).
| Time | Temp. | Humidity | Pressure | Rain* | Wind** | Luminosity | Snow |
|---|---|---|---|---|---|---|---|
| 1788190785 | 26.11° C | 59% | 1028.9 hPa | - | - | - | - |
| 1788189885 | 26.11° C | 60% | 1028.9 hPa | - | - | - | - |
| 1788188985 | 27.22° C | 58% | 1029.1 hPa | - | - | - | - |
| 1788188085 | 27.78° C | 59% | 1029.2 hPa | - | - | - | - |
| 1788187185 | 27.22° C | 59% | 1029.2 hPa | - | - | - | - |
| 1788186285 | 28.33° C | 59% | 1029.2 hPa | - | - | - | - |
| 1788185385 | 32.22° C | 57% | 1029.2 hPa | - | - | - | - |
| 1788184584 | 30° C | 59% | 1029.1 hPa | - | - | - | - |
| 1788184484 | 30° C | 59% | 1029.1 hPa | - | - | - | - |
| 1788183584 | 28.33° C | 59% | 1029 hPa | - | - | - | - |
| 1788182684 | 28.33° C | 58% | 1029.2 hPa | - | - | - | - |
| 1788181784 | 27.22° C | 60% | 1029.3 hPa | - | - | - | - |
| 1788180884 | 26.67° C | 59% | 1029.4 hPa | - | - | - | - |
| 1788179984 | 27.78° C | 59% | 1029.5 hPa | - | - | - | - |
| 1788179084 | 27.22° C | 60% | 1029.4 hPa | - | - | - | - |
| 1788178184 | 26.67° C | 60% | 1029.6 hPa | - | - | - | - |
| 1788177287 | 27.78° C | 60% | 1029.7 hPa | - | - | - | - |
| 1788176469 | 28.33° C | 61% | 1029.7 hPa | - | - | - | - |
| 1788176380 | 28.33° C | 61% | 1029.7 hPa | - | - | - | - |
| 1788175480 | 27.22° C | 61% | 1029.7 hPa | - | - | - | - |
| 1788174579 | 26.67° C | 62% | 1029.8 hPa | - | - | - | - |
| 1788174107 | 27.22° C | 62% | 1029.9 hPa | - | - | - | - |
| 1788173205 | 28.89° C | 62% | 1029.9 hPa | - | - | - | - |
| 1788172305 | 31.67° C | 61% | 1030 hPa | - | - | - | - |
| 1788170506 | 33.33° C | 60% | 1030.1 hPa | - | - | - | - |
* Rain since midnight (hover to see other rain measurements)
** Current wind speed in m/s (hover to see current wind gust speed)